Time,TemperatureF,DewpointF,PressureIn,WindDirection,WindDirectionDegrees,WindSpeedMPH,WindSpeedGustMPH,Humidity,HourlyPrecipIn,Conditions,Clouds,dailyrainin,SoftwareType,DateUTC
2013-09-09 00:01:00,74.8,69.6,29.92,NE,52,0.0,6.0,84,0.00,,,0.00,meteohub,2013-09-09 05:01:00,
2013-09-09 00:06:00,74.5,69.3,29.93,NE,46,0.0,6.0,84,0.00,,,0.00,meteohub,2013-09-09 05:06:00,
2013-09-09 00:12:00,74.7,69.4,29.92,SSE,160,0.0,5.0,84,0.00,,,0.00,meteohub,2013-09-09 05:12:00,
2013-09-09 00:17:00,74.7,69.1,29.92,SE,128,0.0,2.0,83,0.00,,,0.00,meteohub,2013-09-09 05:17:00,
2013-09-09 00:22:00,74.5,69.3,29.92,ESE,123,0.0,2.0,84,0.00,,,0.00,meteohub,2013-09-09 05:22:00,
2013-09-09 00:27:00,74.1,68.9,29.93,ESE,119,0.0,1.0,84,0.00,,,0.00,meteohub,2013-09-09 05:27:00,
2013-09-09 00:32:00,73.8,68.9,29.93,SSE,155,0.0,1.0,85,0.00,,,0.00,meteohub,2013-09-09 05:32:00,
2013-09-09 00:37:00,73.6,69.1,29.93,East,80,0.0,1.0,86,0.00,,,0.00,meteohub,2013-09-09 05:37:00,
2013-09-09 00:42:00,73.6,69.1,29.93,SSE,153,1.0,2.0,86,0.00,,,0.00,meteohub,2013-09-09 05:42:00,
2013-09-09 00:47:00,73.6,68.7,29.93,SE,137,0.0,4.0,85,0.00,,,0.00,meteohub,2013-09-09 05:47:00,
2013-09-09 00:52:00,73.8,68.9,29.93,SE,125,0.0,4.0,85,0.00,,,0.00,meteohub,2013-09-09 05:52:00,
2013-09-09 00:57:00,73.6,69.1,29.93,East,96,0.0,4.0,86,0.00,,,0.00,meteohub,2013-09-09 05:57:00,
2013-09-09 01:02:00,73.2,68.7,29.93,East,84,0.0,0.0,86,0.00,,,0.00,meteohub,2013-09-09 06:02:00,
2013-09-09 01:07:00,73.2,69.1,29.93,ENE,78,0.0,2.0,87,0.00,,,0.00,meteohub,2013-09-09 06:07:00,
2013-09-09 01:12:00,73.2,68.7,29.93,SSE,155,2.0,5.0,86,0.00,,,0.00,meteohub,2013-09-09 06:12:00,
2013-09-09 01:17:00,73.4,68.9,29.93,ENE,68,2.0,6.0,86,0.00,,,0.00,meteohub,2013-09-09 06:17:00,
2013-09-09 01:22:00,73.4,68.9,29.92,SE,125,1.0,6.0,86,0.00,,,0.00,meteohub,2013-09-09 06:22:00,
2013-09-09 01:27:00,73.4,68.9,29.92,SE,127,0.0,6.0,86,0.00,,,0.00,meteohub,2013-09-09 06:27:00,
2013-09-09 01:32:00,73.2,68.7,29.92,East,89,0.0,2.0,86,0.00,,,0.00,meteohub,2013-09-09 06:32:00,
2013-09-09 01:37:00,73.0,68.9,29.92,ESE,110,0.0,2.0,87,0.00,,,0.00,meteohub,2013-09-09 06:37:00,
2013-09-09 01:42:00,73.0,68.9,29.92,SSE,148,0.0,1.0,87,0.00,,,0.00,meteohub,2013-09-09 06:42:00,
2013-09-09 01:47:00,73.0,68.9,29.92,ESE,123,0.0,4.0,87,0.00,,,0.00,meteohub,2013-09-09 06:47:00,
2013-09-09 01:52:00,72.7,68.9,29.92,SE,146,0.0,4.0,88,0.00,,,0.00,meteohub,2013-09-09 06:52:00,
2013-09-09 01:57:00,72.7,68.9,29.92,SE,132,2.0,4.0,88,0.00,,,0.00,meteohub,2013-09-09 06:57:00,
2013-09-09 02:02:00,72.9,68.7,29.92,SSE,158,0.0,5.0,87,0.00,,,0.00,meteohub,2013-09-09 07:02:00,
2013-09-09 02:07:00,73.0,68.9,29.92,SE,127,0.0,5.0,87,0.00,,,0.00,meteohub,2013-09-09 07:07:00,
2013-09-09 02:12:00,73.0,68.9,29.92,SE,142,3.0,5.0,87,0.00,,,0.00,meteohub,2013-09-09 07:12:00,
2013-09-09 02:17:00,72.9,68.7,29.92,South,175,5.0,6.0,87,0.00,,,0.00,meteohub,2013-09-09 07:17:00,
2013-09-09 02:22:00,72.9,68.7,29.92,SE,132,0.0,6.0,87,0.00,,,0.00,meteohub,2013-09-09 07:22:00,
2013-09-09 02:27:00,72.7,68.5,29.92,SE,138,0.0,6.0,87,0.00,,,0.00,meteohub,2013-09-09 07:27:00,
2013-09-09 02:32:00,72.7,68.9,29.92,SSE,148,4.0,6.0,88,0.00,,,0.00,meteohub,2013-09-09 07:32:00,
2013-09-09 02:37:00,72.7,68.9,29.92,ESE,110,5.0,6.0,88,0.00,,,0.00,meteohub,2013-09-09 07:37:00,
2013-09-09 02:42:00,72.7,68.9,29.92,SSE,153,1.0,6.0,88,0.00,,,0.00,meteohub,2013-09-09 07:42:00,
2013-09-09 02:47:00,72.7,68.9,29.92,SE,128,0.0,6.0,88,0.00,,,0.00,meteohub,2013-09-09 07:47:00,
2013-09-09 02:52:00,72.7,68.9,29.92,SE,136,0.0,6.0,88,0.00,,,0.00,meteohub,2013-09-09 07:52:00,
2013-09-09 02:57:00,72.5,68.7,29.92,SSE,148,0.0,6.0,88,0.00,,,0.00,meteohub,2013-09-09 07:57:00,
2013-09-09 03:02:00,72.3,68.5,29.92,SE,146,2.0,6.0,88,0.00,,,0.00,meteohub,2013-09-09 08:02:00,
2013-09-09 03:07:00,72.3,68.5,29.92,SSE,167,1.0,4.0,88,0.00,,,0.00,meteohub,2013-09-09 08:07:00,
2013-09-09 03:12:00,72.3,68.5,29.92,SE,126,1.0,4.0,88,0.00,,,0.00,meteohub,2013-09-09 08:12:00,
2013-09-09 03:17:00,72.3,68.5,29.92,SSW,192,1.0,6.0,88,0.00,,,0.00,meteohub,2013-09-09 08:17:00,
2013-09-09 03:22:00,72.3,68.5,29.92,SSE,157,0.0,6.0,88,0.00,,,0.00,meteohub,2013-09-09 08:22:00,
2013-09-09 03:27:00,72.1,68.4,29.92,SE,126,2.0,5.0,88,0.00,,,0.00,meteohub,2013-09-09 08:27:00,
2013-09-09 03:32:00,72.1,68.4,29.92,SE,132,0.0,5.0,88,0.00,,,0.00,meteohub,2013-09-09 08:32:00,
2013-09-09 03:37:00,72.1,68.4,29.92,SSE,148,4.0,5.0,88,0.00,,,0.00,meteohub,2013-09-09 08:37:00,
2013-09-09 03:42:00,72.1,68.4,29.92,SSE,153,0.0,5.0,88,0.00,,,0.00,meteohub,2013-09-09 08:42:00,
2013-09-09 03:47:00,72.1,68.4,29.92,SE,145,0.0,5.0,88,0.00,,,0.00,meteohub,2013-09-09 08:47:00,
2013-09-09 03:52:00,72.1,68.4,29.92,SSE,152,1.0,6.0,88,0.00,,,0.00,meteohub,2013-09-09 08:52:00,
2013-09-09 03:57:00,72.1,68.4,29.92,SSE,149,0.0,6.0,88,0.00,,,0.00,meteohub,2013-09-09 08:57:00,
2013-09-09 04:02:00,72.1,68.4,29.92,SSE,158,5.0,6.0,88,0.00,,,0.00,meteohub,2013-09-09 09:02:00,
2013-09-09 04:07:00,72.0,68.5,29.92,SSE,167,6.0,6.0,89,0.00,,,0.00,meteohub,2013-09-09 09:07:00,
2013-09-09 04:12:00,72.0,68.5,29.92,SSE,161,3.0,6.0,89,0.00,,,0.00,meteohub,2013-09-09 09:12:00,
2013-09-09 04:17:00,72.0,68.5,29.92,SSE,161,2.0,6.0,89,0.00,,,0.00,meteohub,2013-09-09 09:17:00,
2013-09-09 04:22:00,72.0,68.5,29.92,South,184,5.0,6.0,89,0.00,,,0.00,meteohub,2013-09-09 09:22:00,
2013-09-09 04:27:00,71.8,68.4,29.91,South,178,2.0,6.0,89,0.00,,,0.00,meteohub,2013-09-09 09:27:00,
2013-09-09 04:32:00,71.8,68.4,29.91,SSE,153,2.0,6.0,89,0.00,,,0.00,meteohub,2013-09-09 09:32:00,
2013-09-09 04:37:00,71.8,68.4,29.91,SSE,148,1.0,6.0,89,0.00,,,0.00,meteohub,2013-09-09 09:37:00,
2013-09-09 04:42:00,71.8,68.4,29.91,South,172,2.0,6.0,89,0.00,,,0.00,meteohub,2013-09-09 09:42:00,
2013-09-09 04:47:00,71.8,68.4,29.91,South,175,4.0,6.0,89,0.00,,,0.00,meteohub,2013-09-09 09:47:00,
2013-09-09 04:52:00,71.8,68.4,29.91,South,176,1.0,6.0,89,0.00,,,0.00,meteohub,2013-09-09 09:52:00,
2013-09-09 04:57:00,71.8,68.4,29.91,SSE,167,4.0,6.0,89,0.00,,,0.00,meteohub,2013-09-09 09:57:00,
2013-09-09 05:02:00,71.8,68.4,29.91,SSE,148,4.0,6.0,89,0.00,,,0.00,meteohub,2013-09-09 10:02:00,
2013-09-09 05:07:00,71.8,68.4,29.91,SSW,196,3.0,6.0,89,0.00,,,0.00,meteohub,2013-09-09 10:07:00,
2013-09-09 05:12:00,71.8,68.4,29.91,SSW,205,6.0,6.0,89,0.00,,,0.00,meteohub,2013-09-09 10:12:00,
2013-09-09 05:17:00,71.8,68.4,29.91,South,178,2.0,6.0,89,0.00,,,0.00,meteohub,2013-09-09 10:17:00,
2013-09-09 05:22:00,71.8,68.4,29.91,SSE,161,4.0,6.0,89,0.00,,,0.00,meteohub,2013-09-09 10:22:00,
2013-09-09 05:27:00,71.8,68.4,29.91,South,169,1.0,6.0,89,0.00,,,0.00,meteohub,2013-09-09 10:27:00,
2013-09-09 05:32:00,71.8,68.4,29.91,SE,140,4.0,5.0,89,0.00,,,0.00,meteohub,2013-09-09 10:32:00,
2013-09-09 05:37:00,71.6,68.2,29.91,South,185,4.0,6.0,89,0.00,,,0.00,meteohub,2013-09-09 10:37:00,
2013-09-09 05:42:00,71.6,68.2,29.91,South,175,2.0,6.0,89,0.00,,,0.00,meteohub,2013-09-09 10:42:00,
2013-09-09 05:47:00,71.8,68.4,29.91,SE,140,1.0,7.0,89,0.00,,,0.00,meteohub,2013-09-09 10:47:00,
2013-09-09 05:52:00,71.8,68.4,29.91,SSE,164,4.0,8.0,89,0.00,,,0.00,meteohub,2013-09-09 10:52:00,
2013-09-09 05:57:00,71.8,68.4,29.91,SSE,156,0.0,8.0,89,0.00,,,0.00,meteohub,2013-09-09 10:57:00,
2013-09-09 06:02:00,71.8,68.4,29.92,SSE,155,0.0,6.0,89,0.00,,,0.00,meteohub,2013-09-09 11:02:00,
2013-09-09 06:07:00,71.8,68.4,29.92,SSE,156,0.0,6.0,89,0.00,,,0.00,meteohub,2013-09-09 11:07:00,
2013-09-09 06:12:00,71.8,68.4,29.92,SSE,147,1.0,5.0,89,0.00,,,0.00,meteohub,2013-09-09 11:12:00,
2013-09-09 06:17:00,71.8,68.4,29.92,SE,142,4.0,4.0,89,0.00,,,0.00,meteohub,2013-09-09 11:17:00,
2013-09-09 06:22:00,71.8,68.4,29.92,SSE,154,5.0,8.0,89,0.00,,,0.00,meteohub,2013-09-09 11:22:00,
2013-09-09 06:27:00,71.8,68.0,29.91,SSE,166,4.0,8.0,88,0.00,,,0.00,meteohub,2013-09-09 11:27:00,
2013-09-09 06:32:00,71.8,68.0,29.92,SSE,153,2.0,8.0,88,0.00,,,0.00,meteohub,2013-09-09 11:32:00,
2013-09-09 06:37:00,71.8,68.0,29.92,SSE,168,4.0,7.0,88,0.00,,,0.00,meteohub,2013-09-09 11:37:00,
2013-09-09 06:42:00,71.8,68.0,29.92,SSE,165,3.0,7.0,88,0.00,,,0.00,meteohub,2013-09-09 11:42:00,
2013-09-09 06:47:00,71.8,68.0,29.91,SSE,165,4.0,8.0,88,0.00,,,0.00,meteohub,2013-09-09 11:47:00,
2013-09-09 06:52:00,72.0,68.2,29.92,South,177,2.0,8.0,88,0.00,,,0.00,meteohub,2013-09-09 11:52:00,
2013-09-09 06:57:00,72.0,68.2,29.92,South,179,7.0,8.0,88,0.00,,,0.00,meteohub,2013-09-09 11:57:00,
2013-09-09 07:02:00,72.1,68.4,29.92,SE,139,4.0,8.0,88,0.00,,,0.00,meteohub,2013-09-09 12:02:00,
2013-09-09 07:07:00,72.3,68.2,29.92,SSE,166,2.0,8.0,87,0.00,,,0.00,meteohub,2013-09-09 12:07:00,
2013-09-09 07:12:00,72.5,68.4,29.92,South,169,4.0,7.0,87,0.00,,,0.00,meteohub,2013-09-09 12:12:00,
2013-09-09 07:17:00,72.5,68.4,29.92,South,169,6.0,6.0,87,0.00,,,0.00,meteohub,2013-09-09 12:17:00,
2013-09-09 07:22:00,72.7,68.5,29.92,South,177,2.0,7.0,87,0.00,,,0.00,meteohub,2013-09-09 12:22:00,
2013-09-09 07:27:00,72.9,68.7,29.92,SSE,157,5.0,7.0,87,0.00,,,0.00,meteohub,2013-09-09 12:27:00,
2013-09-09 07:32:00,73.0,68.5,29.92,South,190,3.0,7.0,86,0.00,,,0.00,meteohub,2013-09-09 12:32:00,
2013-09-09 07:37:00,73.2,68.7,29.92,SSE,159,3.0,7.0,86,0.00,,,0.00,meteohub,2013-09-09 12:37:00,
2013-09-09 07:42:00,73.6,68.7,29.92,South,173,2.0,7.0,85,0.00,,,0.00,meteohub,2013-09-09 12:42:00,
2013-09-09 07:47:00,73.6,68.7,29.92,South,180,2.0,7.0,85,0.00,,,0.00,meteohub,2013-09-09 12:47:00,
2013-09-09 07:52:00,73.6,68.7,29.91,South,171,2.0,7.0,85,0.00,,,0.00,meteohub,2013-09-09 12:52:00,
2013-09-09 07:57:00,73.9,69.1,29.92,South,178,7.0,7.0,85,0.00,,,0.00,meteohub,2013-09-09 12:57:00,
2013-09-09 08:02:00,73.8,68.5,29.92,SSW,193,5.0,7.0,84,0.00,,,0.00,meteohub,2013-09-09 13:02:00,
2013-09-09 08:07:00,73.9,69.1,29.92,South,187,5.0,7.0,85,0.00,,,0.00,meteohub,2013-09-09 13:07:00,
2013-09-09 08:12:00,74.1,68.9,29.92,SSW,196,6.0,7.0,84,0.00,,,0.00,meteohub,2013-09-09 13:12:00,
2013-09-09 08:17:00,74.5,69.3,29.92,South,181,4.0,8.0,84,0.00,,,0.00,meteohub,2013-09-09 13:17:00,
2013-09-09 08:22:00,74.8,69.6,29.92,SSW,212,4.0,8.0,84,0.00,,,0.00,meteohub,2013-09-09 13:22:00,
2013-09-09 08:27:00,75.0,69.8,29.92,South,169,4.0,9.0,84,0.00,,,0.00,meteohub,2013-09-09 13:27:00,
2013-09-09 08:32:00,75.6,70.0,29.92,SSW,196,4.0,10.0,83,0.00,,,0.00,meteohub,2013-09-09 13:32:00,
2013-09-09 08:37:00,75.9,70.0,29.92,SSE,155,4.0,10.0,82,0.00,,,0.00,meteohub,2013-09-09 13:37:00,
2013-09-09 08:42:00,76.6,70.7,29.92,South,172,3.0,10.0,82,0.00,,,0.00,meteohub,2013-09-09 13:42:00,
2013-09-09 08:47:00,77.2,70.5,29.92,SSW,196,4.0,8.0,80,0.00,,,0.00,meteohub,2013-09-09 13:47:00,
2013-09-09 08:52:00,77.5,70.5,29.92,South,189,4.0,7.0,79,0.00,,,0.00,meteohub,2013-09-09 13:52:00,
2013-09-09 08:57:00,77.9,70.9,29.92,South,180,4.0,8.0,79,0.00,,,0.00,meteohub,2013-09-09 13:57:00,
2013-09-09 09:02:00,78.1,71.1,29.92,WSW,252,4.0,8.0,79,0.00,,,0.00,meteohub,2013-09-09 14:02:00,
2013-09-09 09:07:00,78.3,70.9,29.92,SSW,198,8.0,9.0,78,0.00,,,0.00,meteohub,2013-09-09 14:07:00,
2013-09-09 09:12:00,78.3,71.2,29.93,SW,223,4.0,10.0,79,0.00,,,0.00,meteohub,2013-09-09 14:12:00,
2013-09-09 09:17:00,78.4,71.1,29.93,SSW,201,11.0,11.0,78,0.00,,,0.00,meteohub,2013-09-09 14:17:00,
2013-09-09 09:22:00,78.4,71.4,29.92,SSW,213,9.0,11.0,79,0.00,,,0.00,meteohub,2013-09-09 14:22:00,
2013-09-09 09:27:00,78.6,71.6,29.93,SSW,208,6.0,11.0,79,0.00,,,0.00,meteohub,2013-09-09 14:27:00,
2013-09-09 09:32:00,79.0,71.6,29.93,SSW,208,5.0,11.0,78,0.00,,,0.00,meteohub,2013-09-09 14:32:00,
2013-09-09 09:37:00,79.2,71.8,29.92,South,188,6.0,11.0,78,0.00,,,0.00,meteohub,2013-09-09 14:37:00,
2013-09-09 09:42:00,79.3,72.0,29.93,South,172,4.0,8.0,78,0.00,,,0.00,meteohub,2013-09-09 14:42:00,
2013-09-09 09:47:00,80.1,72.5,29.93,South,176,5.0,8.0,78,0.00,,,0.00,meteohub,2013-09-09 14:47:00,
2013-09-09 09:52:00,80.6,72.3,29.92,South,188,5.0,8.0,76,0.00,,,0.00,meteohub,2013-09-09 14:52:00,
2013-09-09 09:57:00,80.4,72.1,29.92,SSW,209,9.0,10.0,76,0.00,,,0.00,meteohub,2013-09-09 14:57:00,
2013-09-09 10:02:00,80.6,72.3,29.92,SSW,213,4.0,10.0,76,0.00,,,0.00,meteohub,2013-09-09 15:02:00,
2013-09-09 10:07:00,81.3,72.7,29.92,South,180,4.0,10.0,75,0.00,,,0.00,meteohub,2013-09-09 15:07:00,
2013-09-09 10:12:00,82.4,72.9,29.92,SW,221,7.0,10.0,73,0.00,,,0.00,meteohub,2013-09-09 15:12:00,
2013-09-09 10:17:00,82.9,73.0,29.92,South,180,10.0,10.0,72,0.00,,,0.00,meteohub,2013-09-09 15:17:00,
2013-09-09 10:22:00,83.3,73.4,29.91,South,179,5.0,13.0,72,0.00,,,0.00,meteohub,2013-09-09 15:22:00,
2013-09-09 10:27:00,84.0,73.2,29.91,SW,215,9.0,13.0,70,0.00,,,0.00,meteohub,2013-09-09 15:27:00,
2013-09-09 10:32:00,83.8,73.0,29.91,SW,219,11.0,13.0,70,0.00,,,0.00,meteohub,2013-09-09 15:32:00,
2013-09-09 10:38:00,83.8,73.0,29.92,SSW,209,10.0,14.0,70,0.00,,,0.00,meteohub,2013-09-09 15:38:00,
2013-09-09 10:43:00,84.4,73.6,29.92,South,178,8.0,14.0,70,0.00,,,0.00,meteohub,2013-09-09 15:43:00,
2013-09-09 10:48:00,84.6,73.2,29.92,SSW,209,10.0,14.0,69,0.00,,,0.00,meteohub,2013-09-09 15:48:00,
2013-09-09 10:53:00,84.0,72.7,29.92,SSW,211,6.0,13.0,69,0.00,,,0.00,meteohub,2013-09-09 15:53:00,
2013-09-09 10:58:00,84.4,73.6,29.91,SW,229,6.0,14.0,70,0.00,,,0.00,meteohub,2013-09-09 15:58:00,
2013-09-09 11:04:00,84.6,73.2,29.91,WSW,247,7.0,14.0,69,0.00,,,0.00,meteohub,2013-09-09 16:04:00,
2013-09-09 11:09:00,84.7,73.4,29.91,SSW,196,6.0,14.0,69,0.00,,,0.00,meteohub,2013-09-09 16:09:00,
2013-09-09 11:14:00,85.5,73.8,29.91,South,186,6.0,12.0,68,0.00,,,0.00,meteohub,2013-09-09 16:14:00,
2013-09-09 11:19:00,85.6,73.9,29.91,SSW,196,9.0,12.0,68,0.00,,,0.00,meteohub,2013-09-09 16:19:00,
2013-09-09 11:24:00,86.4,74.1,29.91,SSW,196,6.0,12.0,67,0.00,,,0.00,meteohub,2013-09-09 16:24:00,
2013-09-09 11:29:00,86.5,73.8,29.91,SW,219,12.0,12.0,66,0.00,,,0.00,meteohub,2013-09-09 16:29:00,
2013-09-09 11:35:00,86.7,73.9,29.91,SSW,206,9.0,12.0,66,0.00,,,0.00,meteohub,2013-09-09 16:35:00,
2013-09-09 11:40:00,87.3,74.5,29.91,SSW,206,12.0,12.0,66,0.00,,,0.00,meteohub,2013-09-09 16:40:00,
2013-09-09 11:45:00,87.3,74.5,29.91,SW,228,6.0,15.0,66,0.00,,,0.00,meteohub,2013-09-09 16:45:00,
2013-09-09 11:50:00,87.1,74.3,29.90,SSW,208,4.0,15.0,66,0.00,,,0.00,meteohub,2013-09-09 16:50:00,
2013-09-09 11:55:00,87.3,74.1,29.90,SW,228,5.0,15.0,65,0.00,,,0.00,meteohub,2013-09-09 16:55:00,
2013-09-09 12:01:00,87.8,74.5,29.90,South,190,4.0,14.0,65,0.00,,,0.00,meteohub,2013-09-09 17:01:00,
2013-09-09 12:06:00,88.3,74.7,29.90,South,181,5.0,12.0,64,0.00,,,0.00,meteohub,2013-09-09 17:06:00,
2013-09-09 12:11:00,88.9,74.7,29.90,SW,223,9.0,12.0,63,0.00,,,0.00,meteohub,2013-09-09 17:11:00,
2013-09-09 12:16:00,89.1,74.3,29.90,SSW,208,7.0,12.0,62,0.00,,,0.00,meteohub,2013-09-09 17:16:00,
2013-09-09 12:21:00,88.9,74.1,29.90,SW,223,8.0,12.0,62,0.00,,,0.00,meteohub,2013-09-09 17:21:00,
2013-09-09 12:26:00,89.4,74.1,29.89,SSW,200,10.0,12.0,61,0.00,,,0.00,meteohub,2013-09-09 17:26:00,
2013-09-09 12:32:00,89.8,74.5,29.89,SW,215,7.0,15.0,61,0.00,,,0.00,meteohub,2013-09-09 17:32:00,
2013-09-09 12:37:00,89.4,74.1,29.89,SW,223,12.0,15.0,61,0.00,,,0.00,meteohub,2013-09-09 17:37:00,
2013-09-09 12:42:00,89.2,73.9,29.89,SSW,211,7.0,16.0,61,0.00,,,0.00,meteohub,2013-09-09 17:42:00,
2013-09-09 12:47:00,89.8,75.0,29.89,SSW,198,12.0,16.0,62,0.00,,,0.00,meteohub,2013-09-09 17:47:00,
2013-09-09 12:52:00,89.8,75.0,29.89,SW,216,8.0,16.0,62,0.00,,,0.00,meteohub,2013-09-09 17:52:00,
2013-09-09 12:57:00,89.8,74.5,29.89,West,260,8.0,15.0,61,0.00,,,0.00,meteohub,2013-09-09 17:57:00,
2013-09-09 13:02:00,90.0,74.7,29.89,SSW,207,9.0,15.0,61,0.00,,,0.00,meteohub,2013-09-09 18:02:00,
2013-09-09 13:07:00,90.1,75.4,29.89,SW,221,10.0,19.0,62,0.00,,,0.00,meteohub,2013-09-09 18:07:00,
2013-09-09 13:12:00,90.5,74.7,29.88,SW,231,9.0,19.0,60,0.00,,,0.00,meteohub,2013-09-09 18:12:00,
2013-09-09 13:17:00,90.7,74.8,29.89,SW,225,15.0,19.0,60,0.00,,,0.00,meteohub,2013-09-09 18:17:00,
2013-09-09 13:22:00,90.7,74.8,29.88,SSW,205,6.0,18.0,60,0.00,,,0.00,meteohub,2013-09-09 18:22:00,
2013-09-09 13:27:00,90.9,75.0,29.88,SW,215,6.0,20.0,60,0.00,,,0.00,meteohub,2013-09-09 18:27:00,
2013-09-09 13:32:00,91.0,74.7,29.88,SW,215,9.0,20.0,59,0.00,,,0.00,meteohub,2013-09-09 18:32:00,
2013-09-09 13:37:00,91.6,74.7,29.88,SSW,206,9.0,20.0,58,0.00,,,0.00,meteohub,2013-09-09 18:37:00,
2013-09-09 13:42:00,91.9,74.5,29.87,SSW,196,8.0,18.0,57,0.00,,,0.00,meteohub,2013-09-09 18:42:00,
2013-09-09 13:48:00,91.8,74.3,29.87,SSW,194,7.0,13.0,57,0.00,,,0.00,meteohub,2013-09-09 18:48:00,
2013-09-09 13:53:00,92.3,74.8,29.87,SSW,208,7.0,19.0,57,0.00,,,0.00,meteohub,2013-09-09 18:53:00,
2013-09-09 13:58:00,92.5,74.5,29.87,South,175,5.0,19.0,56,0.00,,,0.00,meteohub,2013-09-09 18:58:00,
2013-09-09 14:03:00,93.0,73.9,29.87,SSW,213,10.0,14.0,54,0.00,,,0.00,meteohub,2013-09-09 19:03:00,
2013-09-09 14:08:00,92.5,73.9,29.87,West,263,9.0,14.0,55,0.00,,,0.00,meteohub,2013-09-09 19:08:00,
2013-09-09 14:13:00,92.5,75.0,29.87,South,180,8.0,14.0,57,0.00,,,0.00,meteohub,2013-09-09 19:13:00,
2013-09-09 14:18:00,92.7,74.7,29.87,SSW,205,11.0,14.0,56,0.00,,,0.00,meteohub,2013-09-09 19:18:00,
2013-09-09 14:23:00,92.5,74.5,29.86,WSW,251,4.0,16.0,56,0.00,,,0.00,meteohub,2013-09-09 19:23:00,
2013-09-09 14:29:00,92.8,74.3,29.86,SW,232,4.0,16.0,55,0.00,,,0.00,meteohub,2013-09-09 19:29:00,
2013-09-09 14:34:00,92.8,74.3,29.86,SW,216,9.0,16.0,55,0.00,,,0.00,meteohub,2013-09-09 19:34:00,
2013-09-09 14:39:00,93.0,73.9,29.86,SW,221,9.0,18.0,54,0.00,,,0.00,meteohub,2013-09-09 19:39:00,
2013-09-09 14:44:00,93.0,73.9,29.86,SSW,194,10.0,18.0,54,0.00,,,0.00,meteohub,2013-09-09 19:44:00,
2013-09-09 14:49:00,93.2,74.1,29.86,SW,219,11.0,18.0,54,0.00,,,0.00,meteohub,2013-09-09 19:49:00,
2013-09-09 14:54:00,93.2,74.1,29.86,WSW,252,8.0,16.0,54,0.00,,,0.00,meteohub,2013-09-09 19:54:00,
2013-09-09 14:59:00,93.4,74.3,29.86,WSW,242,7.0,19.0,54,0.00,,,0.00,meteohub,2013-09-09 19:59:00,
2013-09-09 15:04:00,93.4,74.3,29.86,SSW,213,6.0,19.0,54,0.00,,,0.00,meteohub,2013-09-09 20:04:00,
2013-09-09 15:09:00,93.7,74.7,29.86,SW,217,11.0,19.0,54,0.00,,,0.00,meteohub,2013-09-09 20:09:00,
2013-09-09 15:15:00,93.7,74.7,29.85,SSW,205,5.0,14.0,54,0.00,,,0.00,meteohub,2013-09-09 20:15:00,
2013-09-09 15:20:00,94.3,74.5,29.85,SW,224,9.0,14.0,53,0.00,,,0.00,meteohub,2013-09-09 20:20:00,
2013-09-09 15:25:00,93.9,74.1,29.85,South,190,6.0,13.0,53,0.00,,,0.00,meteohub,2013-09-09 20:25:00,
2013-09-09 15:30:00,94.3,73.4,29.85,South,191,7.0,13.0,51,0.00,,,0.00,meteohub,2013-09-09 20:30:00,
2013-09-09 15:35:00,94.3,73.9,29.86,SSW,205,14.0,14.0,52,0.00,,,0.00,meteohub,2013-09-09 20:35:00,
2013-09-09 15:40:00,93.9,73.6,29.85,SW,227,9.0,15.0,52,0.00,,,0.00,meteohub,2013-09-09 20:40:00,
2013-09-09 15:45:00,94.3,73.9,29.85,SSW,202,6.0,15.0,52,0.00,,,0.00,meteohub,2013-09-09 20:45:00,
2013-09-09 15:50:00,94.5,72.9,29.85,WSW,238,3.0,15.0,50,0.00,,,0.00,meteohub,2013-09-09 20:50:00,
2013-09-09 15:55:00,94.5,72.9,29.85,SSW,202,5.0,14.0,50,0.00,,,0.00,meteohub,2013-09-09 20:55:00,
2013-09-09 16:01:00,94.6,72.5,29.85,SW,217,7.0,14.0,49,0.00,,,0.00,meteohub,2013-09-09 21:01:00,
2013-09-09 16:06:00,94.6,72.5,29.85,SSW,205,12.0,15.0,49,0.00,,,0.00,meteohub,2013-09-09 21:06:00,
2013-09-09 16:11:00,94.5,72.3,29.85,SSW,205,9.0,20.0,49,0.00,,,0.00,meteohub,2013-09-09 21:11:00,
2013-09-09 16:16:00,94.5,71.8,29.85,SW,218,9.0,20.0,48,0.00,,,0.00,meteohub,2013-09-09 21:16:00,
2013-09-09 16:21:00,94.5,71.8,29.85,WSW,244,9.0,20.0,48,0.00,,,0.00,meteohub,2013-09-09 21:21:00,
2013-09-09 16:26:00,94.3,71.6,29.85,West,269,4.0,16.0,48,0.00,,,0.00,meteohub,2013-09-09 21:26:00,
2013-09-09 16:31:00,94.5,71.8,29.84,SSW,213,7.0,15.0,48,0.00,,,0.00,meteohub,2013-09-09 21:31:00,
2013-09-09 16:36:00,94.5,71.8,29.85,SW,225,10.0,16.0,48,0.00,,,0.00,meteohub,2013-09-09 21:36:00,
2013-09-09 16:41:00,94.3,70.9,29.84,South,182,9.0,20.0,47,0.00,,,0.00,meteohub,2013-09-09 21:41:00,
2013-09-09 16:46:00,94.5,71.8,29.84,SW,219,8.0,20.0,48,0.00,,,0.00,meteohub,2013-09-09 21:46:00,
2013-09-09 16:51:00,94.5,71.8,29.84,SW,219,8.0,20.0,48,0.00,,,0.00,meteohub,2013-09-09 21:51:00,
2013-09-09 16:57:00,94.5,72.3,29.84,SSW,212,5.0,13.0,49,0.00,,,0.00,meteohub,2013-09-09 21:57:00,
2013-09-09 17:02:00,94.3,72.1,29.85,SSW,200,7.0,13.0,49,0.00,,,0.00,meteohub,2013-09-09 22:02:00,
2013-09-09 17:07:00,94.1,72.0,29.85,SW,219,8.0,12.0,49,0.00,,,0.00,meteohub,2013-09-09 22:07:00,
2013-09-09 17:12:00,93.9,71.8,29.85,SSW,208,8.0,14.0,49,0.00,,,0.00,meteohub,2013-09-09 22:12:00,
2013-09-09 17:17:00,93.7,72.3,29.85,SW,229,11.0,14.0,50,0.00,,,0.00,meteohub,2013-09-09 22:17:00,
2013-09-09 17:22:00,93.7,72.3,29.85,South,186,7.0,14.0,50,0.00,,,0.00,meteohub,2013-09-09 22:22:00,
2013-09-09 17:27:00,93.6,72.7,29.85,South,179,5.0,13.0,51,0.00,,,0.00,meteohub,2013-09-09 22:27:00,
2013-09-09 17:32:00,93.4,72.5,29.85,SW,217,6.0,14.0,51,0.00,,,0.00,meteohub,2013-09-09 22:32:00,
2013-09-09 17:37:00,93.2,72.3,29.85,SSW,213,7.0,14.0,51,0.00,,,0.00,meteohub,2013-09-09 22:37:00,
2013-09-09 17:42:00,93.0,72.1,29.86,SW,229,9.0,13.0,51,0.00,,,0.00,meteohub,2013-09-09 22:42:00,
2013-09-09 17:47:00,92.8,72.0,29.86,SW,221,10.0,13.0,51,0.00,,,0.00,meteohub,2013-09-09 22:47:00,
2013-09-09 17:52:00,92.7,72.0,29.86,South,175,1.0,13.0,51,0.00,,,0.00,meteohub,2013-09-09 22:52:00,
2013-09-09 17:58:00,92.5,71.8,29.85,SSW,209,8.0,11.0,51,0.00,,,0.00,meteohub,2013-09-09 22:58:00,
2013-09-09 18:03:00,92.1,71.4,29.85,SSW,192,6.0,11.0,51,0.00,,,0.00,meteohub,2013-09-09 23:03:00,
2013-09-09 18:08:00,91.9,71.8,29.85,SW,217,4.0,11.0,52,0.00,,,0.00,meteohub,2013-09-09 23:08:00,
2013-09-09 18:13:00,91.8,71.6,29.86,SW,223,5.0,11.0,52,0.00,,,0.00,meteohub,2013-09-09 23:13:00,
2013-09-09 18:18:00,91.6,72.0,29.86,South,180,5.0,11.0,53,0.00,,,0.00,meteohub,2013-09-09 23:18:00,
2013-09-09 18:23:00,91.2,71.6,29.86,SSW,208,6.0,10.0,53,0.00,,,0.00,meteohub,2013-09-09 23:23:00,
2013-09-09 18:28:00,90.9,72.0,29.86,South,186,5.0,10.0,54,0.00,,,0.00,meteohub,2013-09-09 23:28:00,
2013-09-09 18:33:00,90.7,71.8,29.86,South,190,7.0,10.0,54,0.00,,,0.00,meteohub,2013-09-09 23:33:00,
2013-09-09 18:38:00,90.3,72.0,29.86,South,184,6.0,10.0,55,0.00,,,0.00,meteohub,2013-09-09 23:38:00,
2013-09-09 18:43:00,90.0,72.1,29.86,South,169,4.0,9.0,56,0.00,,,0.00,meteohub,2013-09-09 23:43:00,
2013-09-09 18:48:00,89.8,72.0,29.86,SW,215,6.0,8.0,56,0.00,,,0.00,meteohub,2013-09-09 23:48:00,
2013-09-09 18:53:00,89.4,72.1,29.86,SSW,202,6.0,8.0,57,0.00,,,0.00,meteohub,2013-09-09 23:53:00,
2013-09-09 18:58:00,89.2,72.5,29.86,SSW,205,5.0,8.0,58,0.00,,,0.00,meteohub,2013-09-09 23:58:00,
2013-09-09 19:03:00,89.1,72.3,29.86,South,186,4.0,8.0,58,0.00,,,0.00,meteohub,2013-09-10 00:03:00,
2013-09-09 19:08:00,88.7,72.5,29.86,SW,217,4.0,7.0,59,0.00,,,0.00,meteohub,2013-09-10 00:08:00,
2013-09-09 19:13:00,88.3,72.7,29.87,SSW,202,7.0,9.0,60,0.00,,,0.00,meteohub,2013-09-10 00:13:00,
2013-09-09 19:18:00,88.2,72.5,29.87,South,190,2.0,9.0,60,0.00,,,0.00,meteohub,2013-09-10 00:18:00,
2013-09-09 19:23:00,87.8,72.7,29.87,SW,217,3.0,9.0,61,0.00,,,0.00,meteohub,2013-09-10 00:23:00,
2013-09-09 19:29:00,87.4,72.9,29.87,South,179,4.0,8.0,62,0.00,,,0.00,meteohub,2013-09-10 00:29:00,
2013-09-09 19:34:00,87.3,72.7,29.88,South,190,7.0,8.0,62,0.00,,,0.00,meteohub,2013-09-10 00:34:00,
2013-09-09 19:39:00,87.1,72.9,29.88,WSW,237,4.0,8.0,63,0.00,,,0.00,meteohub,2013-09-10 00:39:00,
2013-09-09 19:44:00,86.7,73.0,29.88,SSW,211,4.0,8.0,64,0.00,,,0.00,meteohub,2013-09-10 00:44:00,
2013-09-09 19:49:00,86.5,72.9,29.88,SSW,198,5.0,7.0,64,0.00,,,0.00,meteohub,2013-09-10 00:49:00,
2013-09-09 19:54:00,86.5,73.4,29.88,SSW,192,5.0,7.0,65,0.00,,,0.00,meteohub,2013-09-10 00:54:00,
2013-09-09 19:59:00,86.4,73.2,29.88,South,186,3.0,7.0,65,0.00,,,0.00,meteohub,2013-09-10 00:59:00,
2013-09-09 20:04:00,86.4,73.6,29.88,SSW,209,7.0,7.0,66,0.00,,,0.00,meteohub,2013-09-10 01:04:00,
2013-09-09 20:09:00,86.2,73.4,29.88,SSW,200,2.0,8.0,66,0.00,,,0.00,meteohub,2013-09-10 01:09:00,
2013-09-09 20:14:00,86.0,73.2,29.88,SSE,165,5.0,8.0,66,0.00,,,0.00,meteohub,2013-09-10 01:14:00,
2013-09-09 20:19:00,85.8,73.2,29.88,SSW,202,4.0,8.0,66,0.00,,,0.00,meteohub,2013-09-10 01:19:00,
2013-09-09 20:24:00,85.8,73.2,29.89,SSW,193,6.0,8.0,66,0.00,,,0.00,meteohub,2013-09-10 01:24:00,
2013-09-09 20:29:00,85.8,72.7,29.89,South,188,2.0,8.0,65,0.00,,,0.00,meteohub,2013-09-10 01:29:00,
2013-09-09 20:34:00,85.6,73.0,29.89,SW,216,6.0,9.0,66,0.00,,,0.00,meteohub,2013-09-10 01:34:00,
2013-09-09 20:39:00,85.6,72.5,29.89,SSW,204,6.0,9.0,65,0.00,,,0.00,meteohub,2013-09-10 01:39:00,
2013-09-09 20:44:00,85.6,72.5,29.90,SSW,196,6.0,9.0,65,0.00,,,0.00,meteohub,2013-09-10 01:44:00,
2013-09-09 20:49:00,85.5,72.9,29.90,South,181,6.0,12.0,66,0.00,,,0.00,meteohub,2013-09-10 01:49:00,
2013-09-09 20:54:00,85.3,72.7,29.90,South,175,4.0,12.0,66,0.00,,,0.00,meteohub,2013-09-10 01:54:00,
2013-09-09 20:59:00,85.1,72.9,29.90,SSW,194,4.0,12.0,67,0.00,,,0.00,meteohub,2013-09-10 01:59:00,
2013-09-09 21:04:00,84.9,72.7,29.89,SSW,213,6.0,9.0,67,0.00,,,0.00,meteohub,2013-09-10 02:04:00,
2013-09-09 21:10:00,84.7,72.5,29.90,SSE,159,6.0,9.0,67,0.00,,,0.00,meteohub,2013-09-10 02:10:00,
2013-09-09 21:15:00,84.6,72.3,29.90,SSW,202,6.0,8.0,67,0.00,,,0.00,meteohub,2013-09-10 02:15:00,
2013-09-09 21:20:00,84.4,72.1,29.90,SSW,194,4.0,8.0,67,0.00,,,0.00,meteohub,2013-09-10 02:20:00,
2013-09-09 21:25:00,84.0,72.3,29.90,SSW,210,7.0,8.0,68,0.00,,,0.00,meteohub,2013-09-10 02:25:00,
2013-09-09 21:30:00,83.8,72.1,29.91,South,174,5.0,8.0,68,0.00,,,0.00,meteohub,2013-09-10 02:30:00,
2013-09-09 21:35:00,83.8,72.1,29.91,South,188,5.0,8.0,68,0.00,,,0.00,meteohub,2013-09-10 02:35:00,
2013-09-09 21:40:00,83.8,72.1,29.91,South,188,6.0,8.0,68,0.00,,,0.00,meteohub,2013-09-10 02:40:00,
2013-09-09 21:45:00,83.7,72.3,29.91,SSW,194,8.0,8.0,69,0.00,,,0.00,meteohub,2013-09-10 02:45:00,
2013-09-09 21:50:00,83.7,72.3,29.91,SSW,199,5.0,8.0,69,0.00,,,0.00,meteohub,2013-09-10 02:50:00,
2013-09-09 21:55:00,83.7,72.3,29.91,SSW,193,2.0,8.0,69,0.00,,,0.00,meteohub,2013-09-10 02:55:00,
2013-09-09 22:00:00,83.5,72.3,29.90,South,176,4.0,8.0,69,0.00,,,0.00,meteohub,2013-09-10 03:00:00,
2013-09-09 22:05:00,83.5,72.7,29.91,South,183,4.0,8.0,70,0.00,,,0.00,meteohub,2013-09-10 03:05:00,
2013-09-09 22:10:00,83.3,72.5,29.91,SSW,213,5.0,8.0,70,0.00,,,0.00,meteohub,2013-09-10 03:10:00,
2013-09-09 22:15:00,83.1,72.3,29.91,SW,215,4.0,7.0,70,0.00,,,0.00,meteohub,2013-09-10 03:15:00,
2013-09-09 22:20:00,82.9,72.1,29.91,SSW,200,6.0,7.0,70,0.00,,,0.00,meteohub,2013-09-10 03:20:00,
2013-09-09 22:25:00,82.9,72.5,29.91,SSW,199,5.0,8.0,71,0.00,,,0.00,meteohub,2013-09-10 03:25:00,
2013-09-09 22:30:00,82.9,72.5,29.91,South,190,7.0,8.0,71,0.00,,,0.00,meteohub,2013-09-10 03:30:00,
2013-09-09 22:35:00,82.9,72.5,29.91,South,172,4.0,7.0,71,0.00,,,0.00,meteohub,2013-09-10 03:35:00,
2013-09-09 22:40:00,82.9,72.5,29.91,SSW,195,6.0,7.0,71,0.00,,,0.00,meteohub,2013-09-10 03:40:00,
2013-09-09 22:45:00,82.9,72.5,29.91,SSW,209,6.0,7.0,71,0.00,,,0.00,meteohub,2013-09-10 03:45:00,
2013-09-09 22:50:00,82.9,72.5,29.91,SSW,208,2.0,7.0,71,0.00,,,0.00,meteohub,2013-09-10 03:50:00,
2013-09-09 22:56:00,82.9,72.1,29.91,South,183,4.0,7.0,70,0.00,,,0.00,meteohub,2013-09-10 03:56:00,
2013-09-09 23:01:00,82.9,72.1,29.92,SSW,193,10.0,10.0,70,0.00,,,0.00,meteohub,2013-09-10 04:01:00,
2013-09-09 23:05:00,82.9,72.5,29.92,SSW,205,5.0,10.0,71,0.00,,,0.00,meteohub,2013-09-10 04:05:00,
2013-09-09 23:06:00,82.8,72.3,29.92,South,178,4.0,10.0,71,0.00,,,0.00,meteohub,2013-09-10 04:06:00,
2013-09-09 23:08:00,82.8,72.3,29.92,South,183,3.0,10.0,71,0.00,,,0.00,meteohub,2013-09-10 04:08:00,
2013-09-09 23:13:00,82.6,72.1,29.91,South,188,6.0,10.0,71,0.00,,,0.00,meteohub,2013-09-10 04:13:00,
2013-09-09 23:18:00,82.6,72.7,29.92,SSW,192,5.0,10.0,72,0.00,,,0.00,meteohub,2013-09-10 04:18:00,
2013-09-09 23:23:00,82.6,72.1,29.91,SSW,205,6.0,9.0,71,0.00,,,0.00,meteohub,2013-09-10 04:23:00,
2013-09-09 23:27:00,82.6,72.1,29.91,SSW,200,2.0,9.0,71,0.00,,,0.00,meteohub,2013-09-10 04:27:00,
2013-09-09 23:32:00,82.6,72.1,29.92,SSW,195,5.0,9.0,71,0.00,,,0.00,meteohub,2013-09-10 04:32:00,
2013-09-09 23:37:00,82.6,72.7,29.92,SSW,194,9.0,9.0,72,0.00,,,0.00,meteohub,2013-09-10 04:37:00,
2013-09-09 23:42:00,82.8,72.3,29.92,SW,219,6.0,11.0,71,0.00,,,0.00,meteohub,2013-09-10 04:42:00,
2013-09-09 23:47:00,82.8,72.3,29.92,SSW,213,8.0,11.0,71,0.00,,,0.00,meteohub,2013-09-10 04:47:00,
2013-09-09 23:52:00,82.8,72.3,29.91,SSW,209,4.0,13.0,71,0.00,,,0.00,meteohub,2013-09-10 04:52:00,
2013-09-09 23:57:00,82.6,72.7,29.91,SW,219,4.0,13.0,72,0.00,,,0.00,meteohub,2013-09-10 04:57:00,